contact:dominique.lefevre@mio.osupytheas.fr, maurice.libes@osupytheas.fr, didier.mallarino@osupytheas.fr
Project:EMSO http://www.emso-fr.org/EMSO-France
Depth: 2436.0 m
Title:EMSO Ligure Ouest : Data MII capteur MICROCAT
DateTime_Computer,Latitude,Longitude,Temperature,Conductivity,Pressure,DateTime_Instrument
DateTime_Computer,Latitude,Longitude,degC,S m-1,dbar,DateTime_Instrument
2022-11-27T00:00:10Z,42.805,6.029,13.3011,4.60066,2470.624,2022-11-27T02:02:09Z
2022-11-27T00:03:13Z,42.805,6.029,13.3012,4.60062,2470.624,2022-11-27T02:05:12Z
2022-11-27T00:06:16Z,42.805,6.029,13.3014,4.60062,2470.637,2022-11-27T02:08:15Z
2022-11-27T00:09:19Z,42.805,6.029,13.3011,4.60062,2470.6,2022-11-27T02:11:18Z
2022-11-27T00:12:22Z,42.805,6.029,13.3012,4.60064,2470.624,2022-11-27T02:14:21Z
2022-11-27T00:15:25Z,42.805,6.029,13.3014,4.60063,2470.6,2022-11-27T02:17:24Z
2022-11-27T00:18:28Z,42.805,6.029,13.3015,4.60063,2470.577,2022-11-27T02:20:27Z
2022-11-27T00:21:31Z,42.805,6.029,13.3014,4.60062,2470.624,2022-11-27T02:23:30Z
2022-11-27T00:24:34Z,42.805,6.029,13.3013,4.60057,2470.6,2022-11-27T02:26:33Z
2022-11-27T00:27:37Z,42.805,6.029,13.3014,4.60064,2470.577,2022-11-27T02:29:36Z
2022-11-27T00:30:40Z,42.805,6.029,13.3011,4.60062,2470.577,2022-11-27T02:32:40Z
2022-11-27T00:33:43Z,42.805,6.029,13.3014,4.60064,2470.591,2022-11-27T02:35:43Z
2022-11-27T00:36:47Z,42.805,6.029,13.3016,4.60064,2470.614,2022-11-27T02:38:46Z
2022-11-27T00:39:50Z,42.805,6.029,13.3011,4.60064,2470.591,2022-11-27T02:41:49Z
2022-11-27T00:42:53Z,42.805,6.029,13.3011,4.60062,2470.6,2022-11-27T02:44:52Z
2022-11-27T00:45:56Z,42.805,6.029,13.3015,4.60063,2470.577,2022-11-27T02:47:55Z
2022-11-27T00:48:59Z,42.805,6.029,13.3017,4.60062,2470.577,2022-11-27T02:50:58Z
2022-11-27T00:52:02Z,42.805,6.029,13.3012,4.60067,2470.577,2022-11-27T02:54:01Z
2022-11-27T00:55:05Z,42.805,6.029,13.3020,4.60065,2470.577,2022-11-27T02:57:04Z
2022-11-27T00:58:08Z,42.805,6.029,13.3014,4.60063,2470.586,2022-11-27T03:00:07Z
2022-11-27T01:01:11Z,42.805,6.029,13.3017,4.60064,2470.577,2022-11-27T03:03:10Z
2022-11-27T01:04:14Z,42.805,6.029,13.3013,4.60064,2470.6,2022-11-27T03:06:13Z
2022-11-27T01:07:17Z,42.805,6.029,13.3016,4.60063,2470.567,2022-11-27T03:09:17Z
2022-11-27T01:10:20Z,42.805,6.029,13.3014,4.60064,2470.553,2022-11-27T03:12:20Z
2022-11-27T01:13:23Z,42.805,6.029,13.3014,4.60066,2470.553,2022-11-27T03:15:23Z
2022-11-27T01:16:27Z,42.805,6.029,13.3014,4.60066,2470.53,2022-11-27T03:18:26Z
2022-11-27T01:19:30Z,42.805,6.029,13.3016,4.60064,2470.577,2022-11-27T03:21:29Z
2022-11-27T01:22:33Z,42.805,6.029,13.3016,4.60063,2470.577,2022-11-27T03:24:32Z
2022-11-27T01:25:36Z,42.805,6.029,13.3013,4.60064,2470.577,2022-11-27T03:27:35Z
2022-11-27T01:28:39Z,42.805,6.029,13.3014,4.60064,2470.553,2022-11-27T03:30:38Z
2022-11-27T01:31:42Z,42.805,6.029,13.3013,4.60064,2470.53,2022-11-27T03:33:41Z
2022-11-27T01:34:45Z,42.805,6.029,13.3015,4.60066,2470.553,2022-11-27T03:36:44Z
2022-11-27T01:37:48Z,42.805,6.029,13.3015,4.60064,2470.553,2022-11-27T03:39:47Z
2022-11-27T01:40:51Z,42.805,6.029,13.3015,4.60063,2470.544,2022-11-27T03:42:50Z
2022-11-27T01:43:54Z,42.805,6.029,13.3015,4.60064,2470.553,2022-11-27T03:45:53Z
2022-11-27T01:46:57Z,42.805,6.029,13.3013,4.60064,2470.553,2022-11-27T03:48:57Z
2022-11-27T01:50:00Z,42.805,6.029,13.3014,4.60064,2470.53,2022-11-27T03:52:00Z
2022-11-27T01:53:04Z,42.805,6.029,13.3011,4.60063,2470.53,2022-11-27T03:55:03Z
2022-11-27T01:56:07Z,42.805,6.029,13.3015,4.60064,2470.53,2022-11-27T03:58:06Z
2022-11-27T01:59:10Z,42.805,6.029,13.3015,4.60064,2470.544,2022-11-27T04:01:09Z
2022-11-27T02:02:13Z,42.805,6.029,13.3015,4.60067,2470.553,2022-11-27T04:04:12Z
2022-11-27T02:05:16Z,42.805,6.029,13.3016,4.60063,2470.53,2022-11-27T04:07:15Z
2022-11-27T02:08:19Z,42.805,6.029,13.3014,4.60064,2470.53,2022-11-27T04:10:18Z
2022-11-27T02:11:22Z,42.805,6.029,13.3015,4.60063,2470.544,2022-11-27T04:13:21Z
2022-11-27T02:14:25Z,42.805,6.029,13.3016,4.60063,2470.507,2022-11-27T04:16:24Z
2022-11-27T02:17:28Z,42.805,6.029,13.3015,4.60066,2470.544,2022-11-27T04:19:27Z
2022-11-27T02:20:31Z,42.805,6.029,13.3017,4.60064,2470.53,2022-11-27T04:22:30Z
2022-11-27T02:23:34Z,42.805,6.029,13.3012,4.60064,2470.567,2022-11-27T04:25:33Z
2022-11-27T02:26:37Z,42.805,6.029,13.3014,4.60065,2470.53,2022-11-27T04:28:37Z
2022-11-27T02:29:40Z,42.805,6.029,13.3018,4.60068,2470.53,2022-11-27T04:31:40Z
2022-11-27T02:32:44Z,42.805,6.029,13.3015,4.60065,2470.53,2022-11-27T04:34:43Z
2022-11-27T02:35:47Z,42.805,6.029,13.3016,4.60067,2470.53,2022-11-27T04:37:46Z
2022-11-27T02:38:50Z,42.805,6.029,13.3014,4.60064,2470.53,2022-11-27T04:40:49Z
2022-11-27T02:41:53Z,42.805,6.029,13.3019,4.60064,2470.53,2022-11-27T04:43:52Z
2022-11-27T02:44:56Z,42.805,6.029,13.3015,4.60064,2470.544,2022-11-27T04:46:55Z
2022-11-27T02:47:59Z,42.805,6.029,13.3016,4.60064,2470.544,2022-11-27T04:49:58Z
2022-11-27T02:51:02Z,42.805,6.029,13.3015,4.60064,2470.507,2022-11-27T04:53:01Z
2022-11-27T02:54:05Z,42.805,6.029,13.3017,4.60064,2470.53,2022-11-27T04:56:04Z
2022-11-27T02:57:08Z,42.805,6.029,13.3015,4.60064,2470.507,2022-11-27T04:59:07Z
2022-11-27T03:00:11Z,42.805,6.029,13.3015,4.60064,2470.507,2022-11-27T05:02:10Z
2022-11-27T03:03:14Z,42.805,6.029,13.3015,4.60063,2470.507,2022-11-27T05:05:14Z
2022-11-27T03:06:17Z,42.805,6.029,13.3013,4.60064,2470.52,2022-11-27T05:08:17Z
2022-11-27T03:09:20Z,42.805,6.029,13.3014,4.60064,2470.53,2022-11-27T05:11:20Z
2022-11-27T03:12:24Z,42.805,6.029,13.3014,4.60065,2470.507,2022-11-27T05:14:23Z
2022-11-27T03:15:27Z,42.805,6.029,13.3017,4.60066,2470.53,2022-11-27T05:17:26Z
2022-11-27T03:18:30Z,42.805,6.029,13.3019,4.60064,2470.52,2022-11-27T05:20:29Z
2022-11-27T03:21:33Z,42.805,6.029,13.3013,4.60064,2470.53,2022-11-27T05:23:32Z
2022-11-27T03:24:36Z,42.805,6.029,13.3021,4.60067,2470.52,2022-11-27T05:26:35Z
2022-11-27T03:27:39Z,42.805,6.029,13.3015,4.60064,2470.507,2022-11-27T05:29:38Z
2022-11-27T03:30:42Z,42.805,6.029,13.3016,4.60062,2470.507,2022-11-27T05:32:41Z
2022-11-27T03:33:45Z,42.805,6.029,13.3015,4.60064,2470.53,2022-11-27T05:35:44Z
2022-11-27T03:36:48Z,42.805,6.029,13.3018,4.60062,2470.507,2022-11-27T05:38:47Z
2022-11-27T03:39:51Z,42.805,6.029,13.3013,4.60067,2470.52,2022-11-27T05:41:50Z
2022-11-27T03:42:54Z,42.805,6.029,13.3020,4.60064,2470.497,2022-11-27T05:44:54Z
2022-11-27T03:45:57Z,42.805,6.029,13.3019,4.60067,2470.497,2022-11-27T05:47:57Z
2022-11-27T03:49:01Z,42.805,6.029,13.3014,4.60063,2470.507,2022-11-27T05:51:00Z
2022-11-27T03:52:04Z,42.805,6.029,13.3015,4.60064,2470.544,2022-11-27T05:54:03Z
2022-11-27T03:55:07Z,42.805,6.029,13.3013,4.60066,2470.53,2022-11-27T05:57:06Z
2022-11-27T03:58:10Z,42.805,6.029,13.3014,4.60062,2470.507,2022-11-27T06:00:09Z
2022-11-27T04:01:13Z,42.805,6.029,13.3015,4.60063,2470.507,2022-11-27T06:03:12Z
2022-11-27T04:04:16Z,42.805,6.029,13.3016,4.60067,2470.507,2022-11-27T06:06:15Z
2022-11-27T04:07:19Z,42.805,6.029,13.3016,4.60062,2470.507,2022-11-27T06:09:18Z
2022-11-27T04:10:22Z,42.805,6.029,13.3013,4.60062,2470.507,2022-11-27T06:12:21Z
2022-11-27T04:13:25Z,42.805,6.029,13.3014,4.60063,2470.483,2022-11-27T06:15:24Z
2022-11-27T04:16:28Z,42.805,6.029,13.3012,4.60062,2470.53,2022-11-27T06:18:27Z
2022-11-27T04:19:31Z,42.805,6.029,13.3017,4.60063,2470.52,2022-11-27T06:21:30Z
2022-11-27T04:22:34Z,42.805,6.029,13.3019,4.60064,2470.53,2022-11-27T06:24:34Z
2022-11-27T04:25:37Z,42.805,6.029,13.3014,4.60069,2470.53,2022-11-27T06:27:37Z
2022-11-27T04:28:41Z,42.805,6.029,13.3019,4.60068,2470.53,2022-11-27T06:30:40Z
2022-11-27T04:31:44Z,42.805,6.029,13.3014,4.60072,2470.53,2022-11-27T06:33:43Z
2022-11-27T04:34:47Z,42.805,6.029,13.3018,4.60067,2470.53,2022-11-27T06:36:46Z
2022-11-27T04:37:50Z,42.805,6.029,13.3017,4.60073,2470.53,2022-11-27T06:39:49Z
2022-11-27T04:40:53Z,42.805,6.029,13.3016,4.60067,2470.544,2022-11-27T06:42:52Z
2022-11-27T04:43:56Z,42.805,6.029,13.3019,4.60067,2470.52,2022-11-27T06:45:55Z
2022-11-27T04:46:59Z,42.805,6.029,13.3015,4.60067,2470.553,2022-11-27T06:48:58Z
2022-11-27T04:50:02Z,42.805,6.029,13.3016,4.60064,2470.507,2022-11-27T06:52:01Z
2022-11-27T04:53:05Z,42.805,6.029,13.3015,4.60064,2470.553,2022-11-27T06:55:04Z
2022-11-27T04:56:08Z,42.805,6.029,13.3015,4.60066,2470.544,2022-11-27T06:58:07Z
2022-11-27T04:59:11Z,42.805,6.029,13.3017,4.60067,2470.53,2022-11-27T07:01:11Z
2022-11-27T05:02:14Z,42.805,6.029,13.3015,4.60065,2470.53,2022-11-27T07:04:14Z
2022-11-27T05:05:17Z,42.805,6.029,13.3012,4.60064,2470.553,2022-11-27T07:07:17Z
2022-11-27T05:08:21Z,42.805,6.029,13.3019,4.60068,2470.53,2022-11-27T07:10:20Z
2022-11-27T05:11:24Z,42.805,6.029,13.3017,4.60067,2470.553,2022-11-27T07:13:23Z
2022-11-27T05:14:27Z,42.805,6.029,13.3014,4.60064,2470.567,2022-11-27T07:16:26Z
2022-11-27T05:17:30Z,42.805,6.029,13.3014,4.60062,2470.544,2022-11-27T07:19:29Z
2022-11-27T05:20:33Z,42.805,6.029,13.3017,4.60062,2470.553,2022-11-27T07:22:32Z
2022-11-27T05:23:36Z,42.805,6.029,13.3016,4.60067,2470.553,2022-11-27T07:25:35Z
2022-11-27T05:26:39Z,42.805,6.029,13.3017,4.60069,2470.577,2022-11-27T07:28:38Z
2022-11-27T05:29:42Z,42.805,6.029,13.3014,4.60067,2470.567,2022-11-27T07:31:41Z
2022-11-27T05:32:45Z,42.805,6.029,13.3014,4.60068,2470.6,2022-11-27T07:34:44Z
2022-11-27T05:35:48Z,42.805,6.029,13.3015,4.60064,2470.53,2022-11-27T07:37:47Z
2022-11-27T05:38:51Z,42.805,6.029,13.3015,4.60063,2470.591,2022-11-27T07:40:51Z
2022-11-27T05:41:54Z,42.805,6.029,13.3019,4.60067,2470.577,2022-11-27T07:43:54Z
2022-11-27T05:44:57Z,42.805,6.029,13.3014,4.60065,2470.591,2022-11-27T07:46:57Z
2022-11-27T05:48:01Z,42.805,6.029,13.3016,4.60065,2470.637,2022-11-27T07:50:00Z
2022-11-27T05:51:04Z,42.805,6.029,13.3015,4.60064,2470.591,2022-11-27T07:53:03Z
2022-11-27T05:54:07Z,42.805,6.029,13.3015,4.60063,2470.6,2022-11-27T07:56:06Z
2022-11-27T05:57:10Z,42.805,6.029,13.3014,4.60064,2470.6,2022-11-27T07:59:09Z
2022-11-27T06:00:13Z,42.805,6.029,13.3014,4.60068,2470.614,2022-11-27T08:02:12Z
2022-11-27T06:03:16Z,42.805,6.029,13.3015,4.60064,2470.624,2022-11-27T08:05:15Z
2022-11-27T06:06:19Z,42.805,6.029,13.3014,4.60069,2470.577,2022-11-27T08:08:18Z
2022-11-27T06:09:22Z,42.805,6.029,13.3017,4.60067,2470.614,2022-11-27T08:11:21Z
2022-11-27T06:12:25Z,42.805,6.029,13.3015,4.60064,2470.567,2022-11-27T08:14:24Z
2022-11-27T06:15:28Z,42.805,6.029,13.3019,4.60071,2470.624,2022-11-27T08:17:27Z
2022-11-27T06:18:31Z,42.805,6.029,13.3014,4.60069,2470.637,2022-11-27T08:20:31Z
2022-11-27T06:21:34Z,42.805,6.029,13.3014,4.60069,2470.6,2022-11-27T08:23:34Z
2022-11-27T06:24:38Z,42.805,6.029,13.3020,4.60064,2470.624,2022-11-27T08:26:37Z
2022-11-27T06:27:41Z,42.805,6.029,13.3016,4.60066,2470.624,2022-11-27T08:29:40Z
2022-11-27T06:30:44Z,42.805,6.029,13.3018,4.60071,2470.624,2022-11-27T08:32:43Z
2022-11-27T06:33:47Z,42.805,6.029,13.3016,4.60073,2470.614,2022-11-27T08:35:46Z
2022-11-27T06:36:50Z,42.805,6.029,13.3018,4.60069,2470.661,2022-11-27T08:38:49Z
2022-11-27T06:39:53Z,42.805,6.029,13.3015,4.60065,2470.661,2022-11-27T08:41:52Z
2022-11-27T06:42:56Z,42.805,6.029,13.3015,4.60064,2470.661,2022-11-27T08:44:55Z
2022-11-27T06:45:59Z,42.805,6.029,13.3013,4.60063,2470.684,2022-11-27T08:47:58Z
2022-11-27T06:49:02Z,42.805,6.029,13.3019,4.60068,2470.646,2022-11-27T08:51:01Z
2022-11-27T06:52:05Z,42.805,6.029,13.3018,4.60067,2470.67,2022-11-27T08:54:04Z
2022-11-27T06:55:08Z,42.805,6.029,13.3015,4.60066,2470.646,2022-11-27T08:57:07Z
2022-11-27T06:58:11Z,42.805,6.029,13.3018,4.60066,2470.661,2022-11-27T09:00:11Z
2022-11-27T07:01:14Z,42.805,6.029,13.3019,4.60074,2470.646,2022-11-27T09:03:14Z
2022-11-27T07:04:17Z,42.805,6.029,13.3019,4.60064,2470.707,2022-11-27T09:06:17Z
2022-11-27T07:07:21Z,42.805,6.029,13.3017,4.60070,2470.67,2022-11-27T09:09:20Z
2022-11-27T07:10:24Z,42.805,6.029,13.3015,4.60064,2470.693,2022-11-27T09:12:23Z
2022-11-27T07:13:27Z,42.805,6.029,13.3011,4.60066,2470.693,2022-11-27T09:15:26Z
2022-11-27T07:16:30Z,42.805,6.029,13.3020,4.60069,2470.693,2022-11-27T09:18:29Z
2022-11-27T07:19:33Z,42.805,6.029,13.3020,4.60066,2470.67,2022-11-27T09:21:32Z
2022-11-27T07:22:36Z,42.805,6.029,13.3018,4.60065,2470.707,2022-11-27T09:24:35Z
2022-11-27T07:25:39Z,42.805,6.029,13.3015,4.60067,2470.73,2022-11-27T09:27:38Z
2022-11-27T07:28:42Z,42.805,6.029,13.3017,4.60066,2470.73,2022-11-27T09:30:41Z
2022-11-27T07:31:45Z,42.805,6.029,13.3017,4.60066,2470.717,2022-11-27T09:33:44Z
2022-11-27T07:34:48Z,42.805,6.029,13.3013,4.60067,2470.717,2022-11-27T09:36:48Z
2022-11-27T07:37:51Z,42.805,6.029,13.3014,4.60067,2470.717,2022-11-27T09:39:51Z
2022-11-27T07:40:54Z,42.805,6.029,13.3014,4.60067,2470.717,2022-11-27T09:42:54Z
2022-11-27T07:43:58Z,42.805,6.029,13.3018,4.60070,2470.717,2022-11-27T09:45:57Z
2022-11-27T07:47:01Z,42.805,6.029,13.3019,4.60066,2470.693,2022-11-27T09:49:00Z
2022-11-27T07:50:04Z,42.805,6.029,13.3016,4.60069,2470.693,2022-11-27T09:52:03Z
2022-11-27T07:53:07Z,42.805,6.029,13.3016,4.60066,2470.74,2022-11-27T09:55:06Z
2022-11-27T07:56:10Z,42.805,6.029,13.3015,4.60069,2470.777,2022-11-27T09:58:09Z
2022-11-27T07:59:13Z,42.805,6.029,13.3020,4.60064,2470.754,2022-11-27T10:01:12Z
2022-11-27T08:02:16Z,42.805,6.029,13.3016,4.60064,2470.754,2022-11-27T10:04:15Z
2022-11-27T08:05:19Z,42.805,6.029,13.3018,4.60066,2470.717,2022-11-27T10:07:18Z
2022-11-27T08:08:22Z,42.805,6.029,13.3020,4.60064,2470.73,2022-11-27T10:10:21Z
2022-11-27T08:11:25Z,42.805,6.029,13.3018,4.60072,2470.74,2022-11-27T10:13:24Z
2022-11-27T08:14:28Z,42.805,6.029,13.3014,4.60066,2470.74,2022-11-27T10:16:28Z
2022-11-27T08:17:31Z,42.805,6.029,13.3015,4.60067,2470.73,2022-11-27T10:19:31Z
2022-11-27T08:20:34Z,42.805,6.029,13.3014,4.60070,2470.73,2022-11-27T10:22:34Z
2022-11-27T08:23:38Z,42.805,6.029,13.3015,4.60069,2470.717,2022-11-27T10:25:37Z
2022-11-27T08:26:41Z,42.805,6.029,13.3015,4.60067,2470.763,2022-11-27T10:28:40Z
2022-11-27T08:29:44Z,42.805,6.029,13.3014,4.60072,2470.777,2022-11-27T10:31:43Z
2022-11-27T08:32:47Z,42.805,6.029,13.3015,4.60067,2470.777,2022-11-27T10:34:46Z
2022-11-27T08:35:50Z,42.805,6.029,13.3015,4.60069,2470.74,2022-11-27T10:37:49Z
2022-11-27T08:38:53Z,42.805,6.029,13.3019,4.60068,2470.754,2022-11-27T10:40:52Z
2022-11-27T08:41:56Z,42.805,6.029,13.3019,4.60069,2470.763,2022-11-27T10:43:55Z
2022-11-27T08:44:59Z,42.805,6.029,13.3014,4.60074,2470.74,2022-11-27T10:46:58Z
2022-11-27T08:48:02Z,42.805,6.029,13.3018,4.60078,2470.754,2022-11-27T10:50:01Z
2022-11-27T08:51:05Z,42.805,6.029,13.3014,4.60074,2470.777,2022-11-27T10:53:05Z
2022-11-27T08:54:08Z,42.805,6.029,13.3015,4.60074,2470.777,2022-11-27T10:56:08Z
2022-11-27T08:57:11Z,42.805,6.029,13.3021,4.60081,2470.763,2022-11-27T10:59:11Z
2022-11-27T09:00:15Z,42.805,6.029,13.3014,4.60095,2470.74,2022-11-27T11:02:14Z
2022-11-27T09:03:18Z,42.805,6.029,13.3015,4.60076,2470.763,2022-11-27T11:05:17Z
2022-11-27T09:06:21Z,42.805,6.029,13.3011,4.60069,2470.754,2022-11-27T11:08:20Z
2022-11-27T09:09:24Z,42.805,6.029,13.3019,4.60069,2470.763,2022-11-27T11:11:23Z
2022-11-27T09:12:27Z,42.805,6.029,13.3019,4.60069,2470.74,2022-11-27T11:14:26Z
2022-11-27T09:15:30Z,42.805,6.029,13.3021,4.60069,2470.8,2022-11-27T11:17:29Z
2022-11-27T09:18:33Z,42.805,6.029,13.3019,4.60074,2470.777,2022-11-27T11:20:32Z
2022-11-27T09:21:36Z,42.805,6.029,13.3018,4.60086,2470.8,2022-11-27T11:23:35Z
2022-11-27T09:24:39Z,42.805,6.029,13.3020,4.60112,2470.754,2022-11-27T11:26:38Z
2022-11-27T09:27:42Z,42.805,6.029,13.3019,4.60088,2470.787,2022-11-27T11:29:42Z
2022-11-27T09:30:45Z,42.805,6.029,13.3020,4.60084,2470.763,2022-11-27T11:32:45Z
2022-11-27T09:33:48Z,42.805,6.029,13.3014,4.60082,2470.777,2022-11-27T11:35:48Z
2022-11-27T09:36:52Z,42.805,6.029,13.3011,4.60078,2470.777,2022-11-27T11:38:51Z
2022-11-27T09:39:55Z,42.805,6.029,13.3015,4.60084,2470.8,2022-11-27T11:41:54Z
2022-11-27T09:42:58Z,42.805,6.029,13.3014,4.60084,2470.777,2022-11-27T11:44:57Z
2022-11-27T09:46:01Z,42.805,6.029,13.3015,4.60084,2470.787,2022-11-27T11:48:00Z
2022-11-27T09:49:04Z,42.805,6.029,13.3020,4.60089,2470.763,2022-11-27T11:51:03Z
2022-11-27T09:52:07Z,42.805,6.029,13.3014,4.60094,2470.777,2022-11-27T11:54:06Z
2022-11-27T09:55:10Z,42.805,6.029,13.3011,4.60094,2470.754,2022-11-27T11:57:09Z
2022-11-27T09:58:13Z,42.805,6.029,13.3012,4.60105,2470.763,2022-11-27T12:00:12Z
2022-11-27T10:01:16Z,42.805,6.029,13.3014,4.60110,2470.787,2022-11-27T12:03:15Z
2022-11-27T10:04:19Z,42.805,6.029,13.3015,4.60089,2470.777,2022-11-27T12:06:19Z
2022-11-27T10:07:22Z,42.805,6.029,13.3017,4.60085,2470.754,2022-11-27T12:09:22Z
2022-11-27T10:10:25Z,42.805,6.029,13.3019,4.60089,2470.8,2022-11-27T12:12:25Z
2022-11-27T10:13:29Z,42.805,6.029,13.3014,4.60091,2470.763,2022-11-27T12:15:28Z
2022-11-27T10:16:32Z,42.805,6.029,13.3018,4.60102,2470.763,2022-11-27T12:18:31Z
2022-11-27T10:19:35Z,42.805,6.029,13.3018,4.60093,2470.8,2022-11-27T12:21:34Z
2022-11-27T10:22:38Z,42.805,6.029,13.3019,4.60090,2470.81,2022-11-27T12:24:37Z
2022-11-27T10:25:41Z,42.805,6.029,13.3018,4.60092,2470.763,2022-11-27T12:27:40Z
2022-11-27T10:28:44Z,42.805,6.029,13.3015,4.60092,2470.754,2022-11-27T12:30:43Z
2022-11-27T10:31:47Z,42.805,6.029,13.3016,4.60097,2470.754,2022-11-27T12:33:46Z
2022-11-27T10:34:50Z,42.805,6.029,13.3015,4.60096,2470.763,2022-11-27T12:36:49Z
2022-11-27T10:37:53Z,42.805,6.029,13.3022,4.60099,2470.763,2022-11-27T12:39:52Z
2022-11-27T10:40:56Z,42.805,6.029,13.3016,4.60090,2470.74,2022-11-27T12:42:56Z
2022-11-27T10:43:59Z,42.805,6.029,13.3011,4.60092,2470.787,2022-11-27T12:45:59Z
2022-11-27T10:47:02Z,42.805,6.029,13.3019,4.60115,2470.763,2022-11-27T12:49:02Z
2022-11-27T10:50:06Z,42.805,6.029,13.3016,4.60148,2470.74,2022-11-27T12:52:05Z
2022-11-27T10:53:09Z,42.805,6.029,13.3015,4.60102,2470.763,2022-11-27T12:55:08Z
2022-11-27T10:56:12Z,42.805,6.029,13.3023,4.60125,2470.754,2022-11-27T12:58:11Z
2022-11-27T10:59:15Z,42.805,6.029,13.3024,4.60116,2470.763,2022-11-27T13:01:14Z
2022-11-27T11:02:18Z,42.805,6.029,13.3018,4.60165,2470.763,2022-11-27T13:04:17Z
2022-11-27T11:05:21Z,42.805,6.029,13.3018,4.60128,2470.787,2022-11-27T13:07:20Z
2022-11-27T11:08:24Z,42.805,6.029,13.3015,4.60096,2470.754,2022-11-27T13:10:23Z
2022-11-27T11:11:27Z,42.805,6.029,13.3019,4.60092,2470.777,2022-11-27T13:13:26Z
2022-11-27T11:14:30Z,42.805,6.029,13.3015,4.60081,2470.777,2022-11-27T13:16:29Z
2022-11-27T11:17:33Z,42.805,6.029,13.3015,4.60079,2470.74,2022-11-27T13:19:32Z
2022-11-27T11:20:36Z,42.805,6.029,13.3015,4.60077,2470.777,2022-11-27T13:22:36Z
2022-11-27T11:23:39Z,42.805,6.029,13.3015,4.60081,2470.763,2022-11-27T13:25:39Z
2022-11-27T11:26:42Z,42.805,6.029,13.3016,4.60079,2470.763,2022-11-27T13:28:42Z
2022-11-27T11:29:46Z,42.805,6.029,13.3015,4.60080,2470.763,2022-11-27T13:31:45Z
2022-11-27T11:32:49Z,42.805,6.029,13.3017,4.60081,2470.763,2022-11-27T13:34:48Z
2022-11-27T11:35:52Z,42.805,6.029,13.3017,4.60085,2470.73,2022-11-27T13:37:51Z
2022-11-27T11:38:55Z,42.805,6.029,13.3018,4.60079,2470.717,2022-11-27T13:40:54Z
2022-11-27T11:41:58Z,42.805,6.029,13.3017,4.60078,2470.74,2022-11-27T13:43:57Z
2022-11-27T11:45:01Z,42.805,6.029,13.3016,4.60081,2470.717,2022-11-27T13:47:00Z
2022-11-27T11:48:04Z,42.805,6.029,13.3014,4.60087,2470.754,2022-11-27T13:50:03Z
2022-11-27T11:51:07Z,42.805,6.029,13.3015,4.60088,2470.754,2022-11-27T13:53:06Z
2022-11-27T11:54:10Z,42.805,6.029,13.3015,4.60079,2470.717,2022-11-27T13:56:09Z
2022-11-27T11:57:13Z,42.805,6.029,13.3011,4.60084,2470.777,2022-11-27T13:59:13Z
2022-11-27T12:00:16Z,42.805,6.029,13.3017,4.60081,2470.74,2022-11-27T14:02:16Z
2022-11-27T12:03:19Z,42.805,6.029,13.3019,4.60077,2470.763,2022-11-27T14:05:19Z
2022-11-27T12:06:23Z,42.805,6.029,13.3015,4.60077,2470.717,2022-11-27T14:08:22Z
2022-11-27T12:09:26Z,42.805,6.029,13.3019,4.60086,2470.754,2022-11-27T14:11:25Z
2022-11-27T12:12:29Z,42.805,6.029,13.3015,4.60085,2470.73,2022-11-27T14:14:28Z
2022-11-27T12:15:32Z,42.805,6.029,13.3015,4.60084,2470.754,2022-11-27T14:17:31Z
2022-11-27T12:18:35Z,42.805,6.029,13.3018,4.60076,2470.693,2022-11-27T14:20:34Z
2022-11-27T12:21:38Z,42.805,6.029,13.3015,4.60074,2470.717,2022-11-27T14:23:37Z
2022-11-27T12:24:41Z,42.805,6.029,13.3014,4.60074,2470.754,2022-11-27T14:26:40Z
2022-11-27T12:27:44Z,42.805,6.029,13.3016,4.60072,2470.73,2022-11-27T14:29:43Z
2022-11-27T12:30:47Z,42.805,6.029,13.3015,4.60077,2470.754,2022-11-27T14:32:46Z
2022-11-27T12:33:50Z,42.805,6.029,13.3019,4.60072,2470.717,2022-11-27T14:35:50Z
2022-11-27T12:36:53Z,42.805,6.029,13.3019,4.60077,2470.717,2022-11-27T14:38:53Z
2022-11-27T12:39:56Z,42.805,6.029,13.3019,4.60072,2470.679,2022-11-27T14:41:56Z
2022-11-27T12:43:00Z,42.805,6.029,13.3019,4.60075,2470.717,2022-11-27T14:44:59Z
2022-11-27T12:46:03Z,42.805,6.029,13.3020,4.60075,2470.693,2022-11-27T14:48:02Z
2022-11-27T12:49:06Z,42.805,6.029,13.3016,4.60071,2470.73,2022-11-27T14:51:05Z
2022-11-27T12:52:09Z,42.805,6.029,13.3015,4.60069,2470.684,2022-11-27T14:54:08Z
2022-11-27T12:55:12Z,42.805,6.029,13.3016,4.60069,2470.717,2022-11-27T14:57:11Z
2022-11-27T12:58:15Z,42.805,6.029,13.3016,4.60072,2470.679,2022-11-27T15:00:14Z
2022-11-27T13:01:18Z,42.805,6.029,13.3016,4.60072,2470.693,2022-11-27T15:03:17Z
2022-11-27T13:04:21Z,42.805,6.029,13.3019,4.60071,2470.67,2022-11-27T15:06:20Z
2022-11-27T13:07:24Z,42.805,6.029,13.3015,4.60072,2470.693,2022-11-27T15:09:23Z
2022-11-27T13:10:27Z,42.805,6.029,13.3017,4.60069,2470.717,2022-11-27T15:12:27Z
2022-11-27T13:13:30Z,42.805,6.029,13.3014,4.60070,2470.693,2022-11-27T15:15:30Z
2022-11-27T13:16:33Z,42.805,6.029,13.3015,4.60070,2470.707,2022-11-27T15:18:33Z
2022-11-27T13:19:37Z,42.805,6.029,13.3014,4.60072,2470.707,2022-11-27T15:21:36Z
2022-11-27T13:22:40Z,42.805,6.029,13.3018,4.60071,2470.693,2022-11-27T15:24:39Z
2022-11-27T13:25:43Z,42.805,6.029,13.3018,4.60073,2470.693,2022-11-27T15:27:42Z
2022-11-27T13:28:46Z,42.805,6.029,13.3015,4.60071,2470.703,2022-11-27T15:30:45Z
2022-11-27T13:31:49Z,42.805,6.029,13.3015,4.60069,2470.693,2022-11-27T15:33:48Z
2022-11-27T13:34:52Z,42.805,6.029,13.3015,4.60069,2470.693,2022-11-27T15:36:51Z
2022-11-27T13:37:55Z,42.805,6.029,13.3019,4.60070,2470.693,2022-11-27T15:39:54Z
2022-11-27T13:40:58Z,42.805,6.029,13.3021,4.60068,2470.693,2022-11-27T15:42:57Z
2022-11-27T13:44:01Z,42.805,6.029,13.3017,4.60070,2470.67,2022-11-27T15:46:00Z
2022-11-27T13:47:04Z,42.805,6.029,13.3016,4.60072,2470.707,2022-11-27T15:49:04Z
2022-11-27T13:50:07Z,42.805,6.029,13.3014,4.60071,2470.67,2022-11-27T15:52:07Z
2022-11-27T13:53:10Z,42.805,6.029,13.3019,4.60069,2470.624,2022-11-27T15:55:10Z
2022-11-27T13:56:14Z,42.805,6.029,13.3015,4.60069,2470.693,2022-11-27T15:58:13Z
2022-11-27T13:59:17Z,42.805,6.029,13.3019,4.60069,2470.646,2022-11-27T16:01:16Z
2022-11-27T14:02:20Z,42.805,6.029,13.3021,4.60071,2470.646,2022-11-27T16:04:19Z
2022-11-27T14:05:23Z,42.805,6.029,13.3015,4.60070,2470.67,2022-11-27T16:07:22Z
2022-11-27T14:08:26Z,42.805,6.029,13.3016,4.60070,2470.646,2022-11-27T16:10:25Z
2022-11-27T14:11:29Z,42.805,6.029,13.3016,4.60071,2470.67,2022-11-27T16:13:28Z
2022-11-27T14:14:32Z,42.805,6.029,13.3019,4.60068,2470.646,2022-11-27T16:16:31Z
2022-11-27T14:17:35Z,42.805,6.029,13.3018,4.60069,2470.661,2022-11-27T16:19:34Z
2022-11-27T14:20:38Z,42.805,6.029,13.3019,4.60069,2470.67,2022-11-27T16:22:37Z
2022-11-27T14:23:41Z,42.805,6.029,13.3019,4.60068,2470.633,2022-11-27T16:25:41Z
2022-11-27T14:26:44Z,42.805,6.029,13.3019,4.60069,2470.646,2022-11-27T16:28:44Z
2022-11-27T14:29:47Z,42.805,6.029,13.3019,4.60070,2470.684,2022-11-27T16:31:47Z
2022-11-27T14:32:51Z,42.805,6.029,13.3015,4.60071,2470.684,2022-11-27T16:34:50Z
2022-11-27T14:35:54Z,42.805,6.029,13.3017,4.60069,2470.661,2022-11-27T16:37:53Z
2022-11-27T14:38:57Z,42.805,6.029,13.3014,4.60069,2470.67,2022-11-27T16:40:56Z
2022-11-27T14:42:00Z,42.805,6.029,13.3017,4.60068,2470.684,2022-11-27T16:43:59Z
2022-11-27T14:45:03Z,42.805,6.029,13.3019,4.60068,2470.661,2022-11-27T16:47:02Z
2022-11-27T14:48:06Z,42.805,6.029,13.3015,4.60067,2470.661,2022-11-27T16:50:05Z
2022-11-27T14:51:09Z,42.805,6.029,13.3019,4.60067,2470.637,2022-11-27T16:53:08Z
2022-11-27T14:54:12Z,42.805,6.029,13.3021,4.60068,2470.684,2022-11-27T16:56:11Z
2022-11-27T14:57:15Z,42.805,6.029,13.3017,4.60067,2470.646,2022-11-27T16:59:14Z
2022-11-27T15:00:18Z,42.805,6.029,13.3018,4.60069,2470.646,2022-11-27T17:02:18Z